JAL502 RJCC-RJTT

Flight info

Callsign JAL502
Flight time 1h 11m
Altitude 38000
Route TOBBY Y10 GODIN
Aircraft B77W/H-SDE1E2E3FGHIJ2J3J4J5M1RWXY/LB1D1

Departure

Time 2026-05-05 23:50
Airport New Chitose Airport (RJCC)

Arrival

Time 2026-05-06 01:02
Airport Tokyo Haneda International Airport (RJTT)
Time Latitude Longitude Altitude Speed Heading
2026-05-05 23:35 42.78559 141.68218 98 ft 0 kts 304°
2026-05-05 23:44 42.78555 141.68225 98 ft 2 kts 304°
2026-05-05 23:45 42.78546 141.68243 98 ft 2 kts 304°
2026-05-05 23:45 42.78537 141.68259 98 ft 2 kts 321°
2026-05-05 23:45 42.78524 141.68269 98 ft 2 kts 340°
2026-05-05 23:45 42.78510 141.68274 98 ft 2 kts 356°
2026-05-05 23:46 42.78495 141.68274 98 ft 2 kts 13°
2026-05-05 23:46 42.78481 141.68266 98 ft 2 kts 30°
2026-05-05 23:46 42.78471 141.68257 98 ft 0 kts 44°
2026-05-05 23:46 42.78468 141.68253 98 ft 0 kts 45°
2026-05-05 23:48 42.78486 141.68277 98 ft 11 kts 46°
2026-05-05 23:48 42.78603 141.68375 98 ft 24 kts 22°
2026-05-05 23:49 42.78749 141.68414 98 ft 17 kts 20°
2026-05-05 23:49 42.78807 141.68539 98 ft 15 kts 76°
2026-05-05 23:49 42.78820 141.68681 98 ft 14 kts 85°
2026-05-05 23:49 42.78818 141.68803 98 ft 10 kts 135°
2026-05-05 23:50 42.78701 141.68837 98 ft 39 kts 174°
2026-05-05 23:50 42.78171 141.68930 98 ft 113 kts 172°
2026-05-05 23:50 42.77171 141.69104 192 ft 166 kts 171°
2026-05-05 23:50 42.76057 141.69333 1002 ft 164 kts 170°
2026-05-05 23:51 42.74918 141.69630 1646 ft 173 kts 174°
2026-05-05 23:51 42.73651 141.69897 2087 ft 192 kts 175°
2026-05-05 23:51 42.72254 141.70184 2562 ft 211 kts 175°
2026-05-05 23:51 42.70759 141.70485 3203 ft 223 kts 177°
2026-05-05 23:52 42.69156 141.70789 3734 ft 241 kts 178°
2026-05-05 23:52 42.67437 141.71109 4379 ft 253 kts 178°
2026-05-05 23:52 42.65653 141.71449 5195 ft 258 kts 180°
2026-05-05 23:52 42.63851 141.71791 5958 ft 265 kts 180°
2026-05-05 23:53 42.61976 141.72067 6606 ft 273 kts 185°
2026-05-05 23:53 42.60052 141.72189 7518 ft 273 kts 186°
2026-05-05 23:53 42.58154 141.72288 8306 ft 277 kts 186°
2026-05-05 23:53 42.56189 141.72395 9119 ft 280 kts 186°
2026-05-05 23:54 42.54237 141.72504 9870 ft 283 kts 186°
2026-05-05 23:54 42.52236 141.72613 10510 ft 293 kts 186°
2026-05-05 23:54 42.50108 141.72726 10974 ft 311 kts 185°
2026-05-05 23:54 42.47799 141.72849 11032 ft 343 kts 184°
2026-05-05 23:55 42.45306 141.72986 11026 ft 365 kts 184°
2026-05-05 23:55 42.42726 141.73134 11042 ft 372 kts 183°
2026-05-05 23:55 42.40096 141.73288 11022 ft 371 kts 184°
2026-05-05 23:55 42.37498 141.73438 11021 ft 373 kts 184°
2026-05-05 23:56 42.34872 141.73587 11019 ft 373 kts 184°
2026-05-05 23:56 42.32256 141.73734 11022 ft 373 kts 184°
2026-05-05 23:56 42.29607 141.73883 11028 ft 373 kts 183°
2026-05-05 23:56 42.27005 141.74030 11040 ft 372 kts 183°
2026-05-05 23:57 42.24363 141.74176 11023 ft 377 kts 183°
2026-05-05 23:57 42.21674 141.74324 11685 ft 387 kts 183°
2026-05-05 23:57 42.18978 141.74478 12957 ft 381 kts 182°
2026-05-05 23:57 42.16350 141.74628 14173 ft 380 kts 182°
2026-05-05 23:58 42.13685 141.74776 15199 ft 387 kts 182°
2026-05-05 23:58 42.10943 141.74928 16264 ft 393 kts 182°
2026-05-05 23:58 42.08205 141.75081 17380 ft 396 kts 182°
2026-05-05 23:58 42.05405 141.75238 18437 ft 400 kts 182°
2026-05-05 23:59 42.02565 141.75395 19361 ft 407 kts 183°
2026-05-05 23:59 41.99712 141.75554 20253 ft 414 kts 183°
2026-05-05 23:59 41.96778 141.75717 21135 ft 420 kts 183°
2026-05-05 23:59 41.93833 141.75880 21975 ft 427 kts 183°
2026-05-06 00:00 41.90825 141.76054 22877 ft 432 kts 182°
2026-05-06 00:00 41.87791 141.76329 23732 ft 437 kts 181°
2026-05-06 00:00 41.84692 141.76628 24537 ft 443 kts 181°
2026-05-06 00:00 41.81552 141.76930 25313 ft 449 kts 181°
2026-05-06 00:01 41.78415 141.77228 26116 ft 454 kts 181°
2026-05-06 00:01 41.75192 141.77531 26878 ft 460 kts 181°
2026-05-06 00:01 41.71968 141.77835 27696 ft 464 kts 181°
2026-05-06 00:01 41.68730 141.78139 28452 ft 469 kts 180°
2026-05-06 00:02 41.65406 141.78448 29134 ft 475 kts 180°
2026-05-06 00:02 41.62091 141.78757 29959 ft 477 kts 180°
2026-05-06 00:02 41.58743 141.79069 31010 ft 473 kts 180°
2026-05-06 00:02 41.55463 141.79376 31985 ft 469 kts 180°
2026-05-06 00:03 41.52206 141.79608 32791 ft 465 kts 185°
2026-05-06 00:03 41.48949 141.79295 33395 ft 460 kts 193°
2026-05-06 00:03 41.45813 141.78424 33969 ft 458 kts 198°
2026-05-06 00:03 41.42699 141.77405 34596 ft 457 kts 198°
2026-05-06 00:04 41.39612 141.76390 35204 ft 454 kts 198°
2026-05-06 00:04 41.36540 141.75385 35821 ft 450 kts 199°
2026-05-06 00:04 41.33500 141.74391 36430 ft 446 kts 199°
2026-05-06 00:04 41.30443 141.73395 37046 ft 444 kts 199°
2026-05-06 00:05 41.24336 141.71407 37828 ft 445 kts 200°
2026-05-06 00:05 41.21249 141.70406 38065 ft 447 kts 200°
2026-05-06 00:06 41.15189 141.68445 38079 ft 442 kts 200°
2026-05-06 00:06 41.09164 141.66499 38084 ft 443 kts 200°
2026-05-06 00:07 41.03048 141.64528 38071 ft 444 kts 200°
2026-05-06 00:07 40.96999 141.62582 38072 ft 443 kts 200°
2026-05-06 00:08 40.90981 141.60652 38085 ft 443 kts 200°
2026-05-06 00:08 40.84932 141.58713 38081 ft 442 kts 200°
2026-05-06 00:09 40.78900 141.56786 38083 ft 442 kts 200°
2026-05-06 00:09 40.72885 141.54866 38088 ft 439 kts 200°
2026-05-06 00:10 40.66900 141.52959 38097 ft 441 kts 200°
2026-05-06 00:10 40.60911 141.51056 38085 ft 438 kts 200°
2026-05-06 00:11 40.54987 141.49178 38094 ft 435 kts 201°
2026-05-06 00:11 40.49039 141.47292 38100 ft 438 kts 200°
2026-05-06 00:12 40.43086 141.45410 38110 ft 434 kts 201°
2026-05-06 00:12 40.37127 141.43527 38104 ft 439 kts 201°
2026-05-06 00:13 40.31112 141.41629 38107 ft 448 kts 201°
2026-05-06 00:13 40.24910 141.39674 38109 ft 461 kts 200°
2026-05-06 00:14 40.18604 141.37695 38121 ft 469 kts 200°
2026-05-06 00:14 40.12200 141.35693 38123 ft 466 kts 200°
2026-05-06 00:15 40.05838 141.33705 38131 ft 467 kts 200°
2026-05-06 00:15 39.99492 141.31726 38146 ft 463 kts 201°
2026-05-06 00:16 39.93196 141.29652 38149 ft 465 kts 201°
2026-05-06 00:16 39.86880 141.27570 38164 ft 464 kts 201°
2026-05-06 00:17 39.80573 141.25496 38165 ft 460 kts 201°
2026-05-06 00:17 39.74303 141.23439 38159 ft 462 kts 201°
2026-05-06 00:18 39.68020 141.21384 38167 ft 463 kts 201°
2026-05-06 00:18 39.61762 141.19344 38167 ft 459 kts 201°
2026-05-06 00:19 39.55479 141.17294 38167 ft 461 kts 201°
2026-05-06 00:19 39.49189 141.15250 38165 ft 461 kts 201°
2026-05-06 00:20 39.42934 141.13222 38172 ft 457 kts 201°
2026-05-06 00:20 39.36676 141.11316 38169 ft 461 kts 200°
2026-05-06 00:21 39.30414 141.09436 38171 ft 460 kts 200°
2026-05-06 00:21 39.24120 141.07546 38177 ft 458 kts 201°
2026-05-06 00:22 39.17882 141.05672 38180 ft 456 kts 200°
2026-05-06 00:22 39.11645 141.03799 38179 ft 458 kts 201°
2026-05-06 00:23 39.05351 141.01915 38180 ft 458 kts 201°
2026-05-06 00:23 38.99111 141.00050 38174 ft 455 kts 201°
2026-05-06 00:24 38.92904 140.98195 38095 ft 458 kts 201°
2026-05-06 00:24 38.89777 140.97266 38256 ft 455 kts 201°
2026-05-06 00:24 38.86665 140.96338 38168 ft 455 kts 201°
2026-05-06 00:25 38.80430 140.94482 38186 ft 456 kts 201°
2026-05-06 00:25 38.74226 140.92641 38182 ft 454 kts 202°
2026-05-06 00:26 38.68014 140.90799 38187 ft 454 kts 201°
2026-05-06 00:26 38.61830 140.88971 38181 ft 451 kts 201°
2026-05-06 00:27 38.55679 140.87152 38182 ft 452 kts 201°
2026-05-06 00:27 38.49480 140.85324 38180 ft 453 kts 202°
2026-05-06 00:28 38.43288 140.83504 38245 ft 451 kts 202°
2026-05-06 00:28 38.37121 140.81694 38181 ft 447 kts 202°
2026-05-06 00:29 38.31043 140.79909 38180 ft 450 kts 203°
2026-05-06 00:29 38.24903 140.78113 38188 ft 448 kts 202°
2026-05-06 00:30 38.18780 140.76325 38185 ft 444 kts 202°
2026-05-06 00:30 38.12681 140.74544 38203 ft 443 kts 203°
2026-05-06 00:31 38.06615 140.72777 38181 ft 445 kts 203°
2026-05-06 00:31 38.00506 140.70999 38174 ft 444 kts 203°
2026-05-06 00:32 37.94438 140.69240 38157 ft 443 kts 204°
2026-05-06 00:32 37.88401 140.67491 38197 ft 439 kts 204°
2026-05-06 00:33 37.82377 140.65745 38195 ft 443 kts 204°
2026-05-06 00:33 37.76302 140.63992 38188 ft 442 kts 204°
2026-05-06 00:34 37.70231 140.62241 38184 ft 442 kts 204°
2026-05-06 00:34 37.64185 140.60501 38188 ft 439 kts 205°
2026-05-06 00:35 37.58191 140.58777 38194 ft 438 kts 205°
2026-05-06 00:35 37.52177 140.57050 38197 ft 437 kts 205°
2026-05-06 00:36 37.46178 140.55328 38184 ft 435 kts 205°
2026-05-06 00:36 37.43232 140.54494 37704 ft 427 kts 205°
2026-05-06 00:36 37.40316 140.53657 36680 ft 430 kts 205°
2026-05-06 00:36 37.37402 140.52823 35865 ft 427 kts 205°
2026-05-06 00:37 37.34486 140.51990 35119 ft 425 kts 205°
2026-05-06 00:37 37.31595 140.51164 34340 ft 423 kts 205°
2026-05-06 00:37 37.28714 140.50343 33533 ft 420 kts 205°
2026-05-06 00:37 37.25857 140.49530 32800 ft 418 kts 205°
2026-05-06 00:38 37.23011 140.48718 32039 ft 416 kts 205°
2026-05-06 00:38 37.20161 140.47906 31249 ft 415 kts 204°
2026-05-06 00:38 37.17343 140.47107 30617 ft 410 kts 204°
2026-05-06 00:38 37.14570 140.46324 30211 ft 400 kts 204°
2026-05-06 00:39 37.11858 140.45557 29778 ft 392 kts 204°
2026-05-06 00:39 37.09209 140.44807 29313 ft 385 kts 204°
2026-05-06 00:39 37.06591 140.44063 28861 ft 388 kts 204°
2026-05-06 00:39 37.03861 140.43272 28364 ft 408 kts 203°
2026-05-06 00:40 37.01066 140.42480 27872 ft 407 kts 202°
2026-05-06 00:40 36.98261 140.41692 27352 ft 404 kts 202°
2026-05-06 00:40 36.95503 140.40913 26873 ft 403 kts 201°
2026-05-06 00:40 36.92755 140.40138 26388 ft 402 kts 201°
2026-05-06 00:41 36.89992 140.39360 25880 ft 400 kts 200°
2026-05-06 00:41 36.87235 140.38583 25376 ft 400 kts 200°
2026-05-06 00:41 36.84494 140.37811 24884 ft 400 kts 200°
2026-05-06 00:41 36.81751 140.37041 24388 ft 399 kts 199°
2026-05-06 00:42 36.79018 140.36272 23888 ft 396 kts 199°
2026-05-06 00:42 36.76299 140.35509 23390 ft 396 kts 199°
2026-05-06 00:42 36.73587 140.34752 22889 ft 396 kts 196°
2026-05-06 00:42 36.70824 140.34174 22417 ft 394 kts 194°
2026-05-06 00:43 36.68110 140.33652 21927 ft 393 kts 193°
2026-05-06 00:43 36.65372 140.33121 21419 ft 393 kts 193°
2026-05-06 00:43 36.62672 140.32591 20915 ft 391 kts 193°
2026-05-06 00:43 36.59943 140.32053 20409 ft 388 kts 193°
2026-05-06 00:44 36.57273 140.31523 19906 ft 385 kts 192°
2026-05-06 00:44 36.54631 140.30997 19401 ft 382 kts 192°
2026-05-06 00:44 36.51968 140.30467 18891 ft 380 kts 192°
2026-05-06 00:44 36.49377 140.29781 18395 ft 379 kts 198°
2026-05-06 00:45 36.46904 140.28600 17862 ft 378 kts 207°
2026-05-06 00:45 36.44609 140.26933 17310 ft 375 kts 215°
2026-05-06 00:45 36.42604 140.24880 16793 ft 371 kts 224°
2026-05-06 00:45 36.40892 140.22469 16282 ft 367 kts 232°
2026-05-06 00:46 36.39525 140.19795 15777 ft 364 kts 240°
2026-05-06 00:46 36.38511 140.16908 15242 ft 363 kts 249°
2026-05-06 00:46 36.37839 140.13886 14709 ft 361 kts 255°
2026-05-06 00:46 36.37264 140.10843 14174 ft 360 kts 254°
2026-05-06 00:47 36.36687 140.07825 13623 ft 358 kts 254°
2026-05-06 00:47 36.35953 140.04840 13076 ft 353 kts 243°
2026-05-06 00:47 36.34656 140.02275 12538 ft 347 kts 227°
2026-05-06 00:47 36.32864 140.00288 12020 ft 342 kts 212°
2026-05-06 00:48 36.30741 139.98990 11525 ft 337 kts 199°
2026-05-06 00:48 36.28511 139.98056 11073 ft 332 kts 197°
2026-05-06 00:48 36.26331 139.97223 10984 ft 317 kts 196°
2026-05-06 00:48 36.24232 139.96469 10924 ft 303 kts 195°
2026-05-06 00:49 36.22234 139.95781 10815 ft 291 kts 194°
2026-05-06 00:49 36.20297 139.95126 10700 ft 280 kts 194°
2026-05-06 00:49 36.18442 139.94502 10580 ft 270 kts 194°
2026-05-06 00:49 36.16626 139.93892 10461 ft 260 kts 194°
2026-05-06 00:50 36.14908 139.93317 10350 ft 250 kts 194°
2026-05-06 00:50 36.13176 139.92737 10162 ft 264 kts 194°
2026-05-06 00:50 36.11382 139.92136 9817 ft 265 kts 194°
2026-05-06 00:50 36.09575 139.91531 9477 ft 264 kts 194°
2026-05-06 00:51 36.07798 139.90935 9181 ft 262 kts 194°
2026-05-06 00:51 36.06027 139.90385 8863 ft 260 kts 188°
2026-05-06 00:51 36.04212 139.90474 8426 ft 263 kts 167°
2026-05-06 00:51 36.02441 139.91154 8073 ft 263 kts 162°
2026-05-06 00:52 36.00705 139.91911 7772 ft 261 kts 162°
2026-05-06 00:52 35.98987 139.92668 7478 ft 259 kts 162°
2026-05-06 00:52 35.97279 139.93420 7186 ft 257 kts 162°
2026-05-06 00:52 35.95600 139.94157 6899 ft 255 kts 163°
2026-05-06 00:53 35.93907 139.94900 6609 ft 253 kts 163°
2026-05-06 00:53 35.92260 139.95624 6323 ft 251 kts 163°
2026-05-06 00:53 35.90596 139.96353 6031 ft 250 kts 163°
2026-05-06 00:53 35.88942 139.97078 5754 ft 251 kts 163°
2026-05-06 00:54 35.87287 139.97801 5475 ft 249 kts 165°
2026-05-06 00:54 35.85577 139.98084 5226 ft 241 kts 184°
2026-05-06 00:54 35.83942 139.97949 5165 ft 230 kts 186°
2026-05-06 00:54 35.82361 139.97780 5111 ft 219 kts 186°
2026-05-06 00:55 35.80870 139.97613 5046 ft 209 kts 186°
2026-05-06 00:55 35.79469 139.97229 4983 ft 201 kts 208°
2026-05-06 00:55 35.78332 139.96320 4983 ft 188 kts 214°
2026-05-06 00:55 35.77280 139.95384 4853 ft 182 kts 215°
2026-05-06 00:56 35.76264 139.94481 4639 ft 178 kts 215°
2026-05-06 00:56 35.75254 139.93594 4418 ft 173 kts 214°
2026-05-06 00:56 35.74287 139.92754 4206 ft 168 kts 214°
2026-05-06 00:56 35.73329 139.91927 3996 ft 165 kts 213°
2026-05-06 00:57 35.72378 139.91109 3781 ft 164 kts 213°
2026-05-06 00:57 35.71436 139.90300 3567 ft 165 kts 213°
2026-05-06 00:57 35.70482 139.89479 3347 ft 165 kts 213°
2026-05-06 00:57 35.69541 139.88672 3129 ft 164 kts 213°
2026-05-06 00:58 35.68605 139.87868 2909 ft 165 kts 213°
2026-05-06 00:58 35.67654 139.87051 2683 ft 165 kts 213°
2026-05-06 00:58 35.66703 139.86235 2459 ft 164 kts 213°
2026-05-06 00:58 35.65761 139.85426 2235 ft 160 kts 212°
2026-05-06 00:59 35.64883 139.84671 2023 ft 148 kts 212°
2026-05-06 00:59 35.64064 139.83969 1826 ft 138 kts 211°
2026-05-06 00:59 35.63268 139.83290 1643 ft 136 kts 212°
2026-05-06 00:59 35.62480 139.82613 1449 ft 136 kts 212°
2026-05-06 01:00 35.61702 139.81947 1261 ft 137 kts 212°
2026-05-06 01:00 35.60896 139.81258 1065 ft 138 kts 212°
2026-05-06 01:00 35.60102 139.80583 874 ft 137 kts 214°
2026-05-06 01:00 35.59318 139.79901 683 ft 137 kts 211°
2026-05-06 01:01 35.58519 139.79231 468 ft 137 kts 215°
2026-05-06 01:01 35.57741 139.78546 279 ft 135 kts 213°
2026-05-06 01:01 35.56965 139.77899 114 ft 134 kts 214°
2026-05-06 01:01 35.56217 139.77258 35 ft 120 kts 214°
2026-05-06 01:02 35.55646 139.76767 35 ft 76 kts 216°
2026-05-06 01:02 35.55371 139.76537 35 ft 27 kts 210°
2026-05-06 01:02 35.55200 139.76465 34 ft 25 kts 192°
2026-05-06 01:02 35.55078 139.76537 34 ft 21 kts 81°
2026-05-06 01:03 35.55142 139.76691 35 ft 19 kts 60°
2026-05-06 01:03 35.55211 139.76834 35 ft 18 kts 59°
2026-05-06 01:03 35.55288 139.76997 34 ft 21 kts 60°
2026-05-06 01:03 35.55293 139.77147 34 ft 19 kts 140°
2026-05-06 01:04 35.55181 139.77231 35 ft 17 kts 151°
2026-05-06 01:04 35.55167 139.77348 35 ft 17 kts 63°
2026-05-06 01:04 35.55227 139.77484 35 ft 17 kts 60°
2026-05-06 01:04 35.55294 139.77628 34 ft 21 kts 60°
2026-05-06 01:05 35.55296 139.77776 35 ft 18 kts 134°
2026-05-06 01:05 35.55195 139.77858 35 ft 16 kts 150°
2026-05-06 01:05 35.55095 139.77930 35 ft 16 kts 149°
2026-05-06 01:05 35.54998 139.77998 35 ft 15 kts 150°
2026-05-06 01:06 35.54973 139.78073 35 ft 9 kts 70°
2026-05-06 01:06 35.55003 139.78145 35 ft 9 kts 61°
2026-05-06 01:06 35.55018 139.78178 35 ft 0 kts 60°